SCP
0 0 0 0 0 0 0 0 0 0 0 0 0 0 0 0 0 0 0 0 0 0 0 0 0 0 0 0 0 0 0 0 0 0 0 0 0 0 0 0 0 0 0
0 0 0 0 0 0 0 0 0 0 0 0 0 0 0 0 0 0 0 0 0 0 0 0 0 0 0 0 0 0 0 0 0 0 0 0 0 0 0 0 0 0 0
0 0 0 0 0 0 0 0 0 0 0 0 0 0 0 0 0 0 0 0 0 0 0 0 0 0 0 0 0 0 0 0 0 0 0 0 0 0 0 0 0 0 0
0 0 0 0 0 0 0 0 0 0 0 0 0 0 0 0 0 0 0 0 0 0 0 0 0 0 0 0 0 0 0 0 0 0 0 0 0 0 0 0 0 0 0
0 0 0 0 0 0 0 0 0 0 0 0 0 0 0 0 0 0 0 0 0 0 0 0 0 0 0 1 1 0 0 0 0 0 0 0 0 0 0 0 0 0 0
0 0 0 0 0 0 0 0 0 0 0 0 0 0 0 0 0 0 0 0 0 0 0 0 0 0 0 1 1 1 0 0 0 0 0 0 0 0 0 0 0 0 0
0 0 0 0 0 0 0 0 0 0 0 0 0 0 0 0 0 0 0 0 0 0 0 0 0 0 0 0 0 0 0 0 0 0 0 0 0 0 0 0 0 0 0
0 0 0 0 0 0 0 0 0 0 0 0 0 0 0 0 0 0 0 0 0 0 0 0 0 0 0 0 0 0 0 0 1 0 0 0 0 0 0 0 0 0 0
0 0 0 0 0 0 0 0 0 0 0 0 0 0 0 0 0 0 0 0 0 0 0 0 0 0 0 0 0 0 0 0 1 1 0 0 0 0 0 0 0 0 0
0 0 0 0 0 0 0 0 0 0 0 0 0 0 0 0 0 0 0 0 0 0 0 0 0 0 0 0 0 0 0 0 0 0 0 0 0 0 0 0 0 0 0
0 0 0 0 0 0 0 0 0 0 0 0 0 0 0 0 0 0 0 0 0 0 0 0 0 0 0 0 0 0 0 0 0 0 0 0 0 0 0 0 0 0 0
0 0 0 0 0 0 0 0 0 0 0 0 0 0 0 0 0 0 0 0 0 0 0 0 0 0 0 0 0 0 0 0 0 0 0 0 0 0 0 0 0 0 0
0 0 0 0 0 0 0 0 0 0 0 0 0 0 0 0 0 0 0 0 0 0 0 0 0 0 0 0 0 0 0 0 0 0 0 0 0 0 0 0 0 0 0
0 0 0 0 0 0 0 0 0 0 0 0 0 0 0 0 0 0 0 0 0 0 0 0 0 0 0 0 0 0 0 0 0 0 0 0 0 0 0 0 0 0 0
0 0 0 0 0 0 0 0 0 0 0 0 0 0 0 0 0 0 0 0 0 0 0 0 0 0 0 0 0 0 0 0 0 0 0 0 0 0 0 0 0 0 0
0 0 0 0 0 0 0 0 0 0 0 0 0 0 0 0 0 0 0 0 0 0 0 0 0 0 0 0 0 0 0 0 0 0 0 0 0 0 0 0 0 0 0
0 0 0 0 0 0 0 0 0 0 0 0 0 0 0 0 0 0 0 0 0 0 0 0 0 0 0 0 0 0 0 0 0 0 0 0 0 0 0 0 0 0 0
0 0 0 0 0 0 0 0 0 0 0 0 0 0 0 0 0 0 0 0 0 0 0 0 0 0 0 0 0 0 0 0 0 0 0 0 0 0 0 0 0 0 0
0 0 0 0 0 0 0 0 0 0 0 0 0 0 0 0 0 0 0 0 0 0 0 0 0 0 0 0 0 0 0 0 0 0 0 0 0 0 0 0 0 0 0
0 0 0 0 0 0 0 0 0 0 0 0 0 0 0 0 0 0 0 0 0 0 0 0 0 0 0 0 0 0 0 0 0 0 0 0 0 0 0 0 0 0 0
0 0 0 0 0 0 0 0 0 0 0 0 0 0 0 0 0 0 0 0 0 0 0 0 0 0 0 0 0 0 0 0 0 0 0 0 0 0 0 0 0 0 0
0 0 0 0 0 0 0 0 0 0 0 0 0 0 0 0 0 0 0 0 0 0 0 0 0 0 0 0 0 0 0 0 0 0 0 0 0 0 0 0 0 0 0
0 0 0 0 0 0 0 0 0 0 0 0 0 0 0 0 0 0 0 0 0 0 0 0 0 0 0 0 0 0 0 0 0 0 0 0 0 0 0 0 0 0 0
0 0 0 0 0 0 0 0 0 0 0 0 0 0 0 0 0 0 0 0 0 0 0 0 0 0 0 0 0 0 0 0 0 0 0 0 0 0 0 0 0 0 0
1 1 0 0 0 0 0 0 0 0 0 0 0 0 0 0 0 0 0 0 0 0 0 0 0 0 0 0 0 0 0 0 0 0 0 0 0 0 0 0 0 0 0
1 1 0 0 0 0 0 0 0 0 0 0 0 0 0 0 0 0 0 0 0 0 0 0 0 0 0 0 0 0 0 0 0 0 0 0 0 0 0 0 0 0 0
Wind_Speed
2 1 1 1 1 1 1 1 1 1 1 1 2 2 3 3 3 3 3 9 10 9 9 9 9 9 8 8 8 7 7 7 7 7 7 7 7 8 8 10 10 11 11
2 2 1 1 1 1 1 1 1 1 1 1 1 1 3 3 3 3 3 5 8 9 9 9 9 9 9 8 8 7 7 7 7 7 7 7 7 7 7 8 9 9 9
3 2 2 1 1 1 1 2 1 1 1 1 1 1 2 3 3 3 3 3 3 7 8 9 9 9 9 8 8 8 7 7 7 7 7 6 6 6 6 7 8 8 9
3 2 2 1 1 1 1 1 1 1 1 1 0 0 1 2 3 3 3 3 2 3 6 8 9 9 9 9 9 8 8 8 7 7 6 7 6 6 6 6 7 7 7
2 2 1 0 1 1 1 1 1 1 0 1 1 1 0 1 1 2 2 3 3 3 3 6 8 9 9 9 9 9 9 8 7 7 7 8 7 7 7 7 7 7 7
2 2 1 0 1 1 1 1 1 0 0 0 1 1 1 1 1 1 2 2 2 3 4 4 4 6 9 9 9 9 9 8 7 7 7 7 7 7 7 7 7 7 7
2 2 1 1 1 1 0 0 1 1 1 1 2 2 3 1 1 1 1 1 2 3 3 3 3 3 3 7 8 8 8 7 7 7 7 7 7 7 7 7 7 8 8
2 2 2 1 1 1 1 1 1 1 1 1 1 1 2 4 3 1 1 1 1 1 2 3 2 3 2 2 3 6 6 6 6 6 6 6 6 7 7 8 7 7 7
2 2 2 2 1 1 1 0 1 1 0 1 1 2 2 2 2 3 2 1 1 1 1 1 2 2 3 2 2 3 5 5 5 5 6 5 5 5 6 7 7 7 7
2 2 1 2 2 1 1 1 1 1 1 1 1 0 2 3 1 2 3 2 2 1 1 1 1 2 2 1 2 3 5 5 5 5 5 5 4 5 5 6 7 8 8
1 1 1 1 1 1 1 1 1 1 1 1 1 1 1 0 1 2 2 3 3 2 1 1 1 1 2 2 2 3 4 4 4 5 5 5 5 5 6 6 6 7 8
1 1 1 1 2 1 2 2 1 1 1 1 1 1 1 1 1 2 2 2 2 3 2 1 1 1 1 1 3 4 4 4 4 4 5 5 5 5 6 6 6 6 7
1 1 1 1 1 2 2 1 1 1 1 1 1 1 1 2 2 2 1 1 2 2 2 2 1 1 1 1 2 4 4 4 4 4 4 4 4 4 5 5 6 6 7
2 2 2 2 2 2 1 1 1 1 0 0 1 1 1 1 1 2 2 2 1 2 2 3 2 1 1 1 2 3 2 3 4 4 4 5 5 4 4 4 5 6 6
2 2 2 2 2 2 1 1 1 1 0 0 1 1 0 1 0 0 1 2 3 1 3 3 2 2 1 1 2 1 1 2 3 3 4 4 4 3 4 5 5 5 5
2 1 1 2 2 1 1 1 1 1 0 0 0 0 1 1 1 1 0 0 1 2 2 2 2 2 2 1 2 1 1 1 1 2 2 2 2 3 4 4 5 5 5
2 2 2 2 2 1 1 1 1 0 0 1 1 0 1 1 0 1 0 0 0 1 2 2 2 1 1 1 2 1 1 1 1 1 2 2 2 2 3 4 4 5 5
2 2 2 2 2 1 1 1 1 1 1 1 1 1 1 1 1 1 0 1 1 1 2 2 2 1 1 1 1 1 1 1 1 2 2 3 3 2 2 2 3 4 4
2 2 2 2 2 2 2 2 2 1 1 2 1 1 1 0 1 1 1 1 1 1 1 1 1 1 1 1 1 1 1 1 2 2 2 3 3 3 3 3 3 3 3
2 2 2 3 3 2 2 2 2 1 1 1 1 1 1 1 2 2 1 1 1 0 0 0 1 1 1 1 0 1 2 2 2 2 2 2 3 3 3 3 3 3 4
3 2 2 2 2 2 2 2 2 2 2 1 1 1 1 1 2 1 1 1 1 1 1 1 1 1 1 1 1 1 1 2 2 1 1 2 2 2 2 4 4 4 4
2 2 3 3 2 2 2 3 3 2 2 2 2 2 1 1 1 1 1 1 1 2 2 2 1 1 2 2 1 1 1 1 3 2 1 2 1 2 2 2 4 4 5
3 2 3 3 3 3 3 3 4 3 3 2 2 2 2 1 1 1 2 2 2 2 3 3 3 3 3 3 2 2 2 2 3 2 0 2 2 2 2 2 3 4 4
3 3 3 3 3 3 3 4 4 3 2 2 3 3 2 2 2 1 1 2 2 3 3 3 4 5 4 3 4 3 3 2 2 2 1 1 2 2 2 2 3 4 4
3 3 3 3 3 3 3 3 3 2 2 3 3 3 3 2 3 2 1 2 3 4 4 3 4 4 3 3 2 1 1 0 2 2 1 1 1 1 2 2 3 4 4
3 3 2 2 3 3 4 4 3 2 2 2 2 3 3 3 4 3 2 3 3 4 3 3 3 3 2 2 2 3 3 2 1 2 2 1 1 1 2 2 2 2 2
Wind_Direction
111 108 95 74 66 102 125 121 86 96 135 153 175 167 170 178 180 176 188 194 195 197 200 202 205 207 208 210 210 212 217 223 223 225 229 231 233 232 230 228 226 224 219
115 115 96 77 59 84 130 124 115 111 133 144 166 171 168 177 184 184 190 196 197 198 205 208 207 205 207 209 212 215 223 228 231 231 232 234 234 234 234 230 226 221 216
113 112 99 79 72 83 91 89 71 68 74 112 186 212 180 187 185 188 193 197 203 206 208 209 209 210 212 212 214 217 223 228 231 231 231 232 232 231 232 232 229 223 218
113 104 97 92 75 69 69 84 81 61 29 38 336 274 201 193 190 195 197 198 203 214 215 215 213 215 217 219 221 224 226 228 230 229 229 228 229 231 233 232 229 223 217
115 112 120 124 58 61 53 81 72 99 55 344 313 337 315 220 216 196 197 202 207 210 217 223 220 220 223 225 227 229 231 229 228 228 231 230 229 229 229 227 225 218 215
129 123 131 116 75 74 47 50 74 54 137 268 347 7 317 252 246 229 223 212 213 214 216 222 223 227 227 228 229 230 233 232 229 227 229 230 232 230 230 227 224 217 212
148 137 138 119 98 115 156 91 100 55 355 18 44 4 345 335 301 249 240 225 230 230 214 217 219 226 235 234 235 235 235 233 233 233 233 234 234 232 229 227 225 218 212
174 159 155 163 136 123 76 59 94 77 331 30 100 62 357 347 340 314 290 222 247 245 219 210 199 210 221 221 228 226 230 231 233 235 236 235 235 234 230 227 226 218 210
179 161 156 161 158 145 155 172 137 135 248 308 130 138 145 245 310 327 327 319 285 263 246 214 201 216 215 217 228 234 228 230 236 238 236 232 234 236 231 223 222 214 212
185 174 159 163 172 162 174 221 169 169 158 271 296 230 184 174 173 307 324 327 322 308 279 258 217 212 207 203 214 220 230 237 240 243 243 236 233 235 232 227 224 218 213
218 196 173 167 179 182 191 223 251 181 172 185 218 243 253 174 163 182 285 313 326 306 285 275 248 240 221 217 223 233 236 239 239 243 245 243 237 236 231 230 227 222 217
249 241 175 175 185 190 198 215 227 223 230 210 209 184 174 185 215 186 231 274 291 298 305 304 283 263 248 232 237 235 233 232 235 238 242 242 234 230 227 226 223 222 222
226 244 212 192 191 201 206 200 197 230 242 235 232 226 216 221 200 177 189 252 287 301 315 313 288 272 250 233 253 245 235 228 230 231 236 233 225 224 227 230 225 223 222
214 213 202 197 199 198 207 182 205 246 253 261 307 262 238 255 214 184 183 183 284 312 314 290 303 292 274 247 266 258 255 234 229 226 231 229 228 227 232 236 231 227 224
207 207 197 185 198 183 169 155 182 249 149 331 302 316 315 303 323 237 180 170 169 234 283 283 289 288 285 274 284 258 256 256 238 226 229 228 229 232 235 233 238 231 226
209 199 198 172 182 176 162 151 189 247 129 271 258 15 347 311 318 324 258 190 166 177 239 267 260 268 278 303 295 262 243 267 262 232 219 214 224 233 233 232 240 234 231
196 192 193 173 184 194 189 171 208 203 170 292 311 355 292 296 338 330 328 29 158 164 223 281 279 287 291 301 325 320 313 295 279 259 226 220 231 239 242 241 233 232 227
201 197 178 170 183 190 194 186 209 240 204 241 278 303 292 304 324 296 295 284 257 208 192 253 288 296 274 271 270 297 321 328 303 284 256 241 237 245 252 248 242 234 226
202 188 162 168 185 193 195 196 192 212 215 219 230 229 256 242 302 290 281 275 265 277 197 196 264 284 294 305 327 318 333 329 316 305 282 273 263 261 262 255 246 238 224
189 185 177 183 187 188 191 196 194 205 223 237 230 222 239 221 240 260 269 267 256 258 206 181 257 287 294 295 29 320 326 328 315 313 310 300 296 287 276 262 245 230 221
196 183 178 190 195 194 206 199 197 198 203 225 252 244 247 256 262 247 265 253 220 204 203 211 251 303 298 298 266 272 294 309 309 295 311 310 307 297 286 271 254 237 229
191 175 185 191 207 229 220 200 186 198 198 199 229 257 266 270 292 313 323 295 207 195 204 208 227 239 257 242 230 229 270 329 305 289 303 308 302 286 278 265 261 250 240
186 190 202 196 210 227 213 205 194 190 203 214 220 234 268 296 284 282 307 326 314 263 207 200 218 235 234 224 203 221 232 239 259 264 255 297 307 289 277 275 273 266 247
188 202 208 205 209 236 218 210 200 198 210 227 225 215 224 261 266 253 261 293 291 286 261 230 224 237 236 225 205 204 212 239 292 293 198 263 289 277 284 289 278 269 251
190 203 204 202 206 238 226 218 206 196 214 240 242 236 227 240 266 249 228 263 286 290 288 273 252 253 246 231 208 148 154 111 308 290 242 209 257 289 295 280 278 271 260
197 200 211 214 211 229 237 233 217 191 217 248 260 253 242 248 262 250 225 229 257 276 294 308 306 297 272 239 196 184 186 185 251 278 258 200 249 298 306 288 266 264 267